When you browse on this site, cookies collect data to enhance your experience and personalize the content and advertising you see.
Visit our Privacy Policy to learn more. By continuing to use the site, you agree to this use of cookies and data.
  • en Suisse
  • Liste des pays
  • À 7 jours
  • Température de l'eau
  • Carte météo
  • Widgets météo
  • user-avatar
    Se connecter

    Météo par heure à Fort-Smit

    Ce jour, 29 Mai, Vendredi

    Heure Température Précipitation Vent Pression Humidité
    00:00 +18°C° 0 mm 1 m/s 749 mmHg 97%
    01:00 +18°C° 0 mm 1 m/s 749 mmHg 98%
    02:00 +18°C° 0 mm 1 m/s 749 mmHg 98%
    03:00 +16°C° 0 mm 2 m/s 749 mmHg 98%
    04:00 +16°C° 0 mm 2 m/s 749 mmHg 98%
    05:00 +16°C° 0 mm 2 m/s 750 mmHg 98%
    06:00 +16°C° 0 mm 2 m/s 750 mmHg 98%
    07:00 +19°C° 0 mm 2 m/s 751 mmHg 90%
    08:00 +21°C° 0 mm 3 m/s 751 mmHg 83%
    09:00 +24°C° 0 mm 3 m/s 752 mmHg 75%
    10:00 +25°C° 0 mm 3 m/s 752 mmHg 67%
    11:00 +27°C° 0 mm 3 m/s 752 mmHg 59%
    12:00 +28°C° 0 mm 3 m/s 752 mmHg 50%
    13:00 +28°C° 0 mm 3 m/s 751 mmHg 50%
    14:00 +28°C° 0 mm 3 m/s 751 mmHg 49%
    15:00 +29°C° 0 mm 4 m/s 751 mmHg 49%
    16:00 +27°C° 0 mm 3 m/s 751 mmHg 56%
    17:00 +26°C° 0 mm 3 m/s 750 mmHg 63%
    18:00 +25°C° 0 mm 3 m/s 750 mmHg 70%
    19:00 +22°C° 0 mm 3 m/s 751 mmHg 71%
    20:00 +20°C° 0 mm 3 m/s 751 mmHg 73%
    21:00 +18°C° 0 mm 2 m/s 752 mmHg 75%
    22:00 +17°C° 0 mm 2 m/s 752 mmHg 78%
    23:00 +16°C° 0 mm 1 m/s 752 mmHg 81%

    Demain, 30 Mai, Samedi

    Heure Température Précipitation Vent Pression Humidité
    00:00 +15°C° 0 mm 1 m/s 753 mmHg 85%
    01:00 +14°C° 0 mm 1 m/s 752 mmHg 86%
    02:00 +14°C° 0 mm 1 m/s 752 mmHg 88%
    03:00 +13°C° 0 mm 1 m/s 752 mmHg 89%
    04:00 +14°C° 0 mm 1 m/s 752 mmHg 89%
    05:00 +14°C° 0 mm 1 m/s 752 mmHg 89%
    06:00 +14°C° 0 mm 1 m/s 753 mmHg 89%
    07:00 +16°C° 0 mm 1 m/s 753 mmHg 81%
    08:00 +19°C° 0 mm 2 m/s 753 mmHg 74%
    09:00 +21°C° 0 mm 2 m/s 753 mmHg 67%
    10:00 +23°C° 0 mm 2 m/s 753 mmHg 63%
    11:00 +25°C° 0 mm 2 m/s 752 mmHg 59%
    12:00 +26°C° 0 mm 1 m/s 752 mmHg 54%
    13:00 +27°C° 0 mm 1 m/s 751 mmHg 54%
    14:00 +27°C° 0 mm 1 m/s 751 mmHg 53%
    15:00 +28°C° 0 mm 1 m/s 751 mmHg 53%
    16:00 +27°C° 0 mm 1 m/s 750 mmHg 59%
    17:00 +26°C° 0 mm 1 m/s 750 mmHg 65%
    18:00 +24°C° 0 mm 0 m/s 750 mmHg 71%
    19:00 +24°C° 0 mm 1 m/s 750 mmHg 74%
    20:00 +22°C° 0 mm 1 m/s 751 mmHg 77%
    21:00 +20°C° 0 mm 1 m/s 751 mmHg 79%
    22:00 +19°C° 0 mm 1 m/s 752 mmHg 82%
    23:00 +19°C° 0 mm 1 m/s 752 mmHg 84%

    Après-demain, 31 Mai, Dimanche

    Heure Température Précipitation Vent Pression Humidité
    00:00 +18°C° 0 mm 1 m/s 752 mmHg 86%
    01:00 +18°C° 0 mm 1 m/s 752 mmHg 88%
    02:00 +16°C° 0 mm 1 m/s 752 mmHg 89%
    03:00 +16°C° 0 mm 1 m/s 752 mmHg 90%
    04:00 +16°C° 0 mm 1 m/s 752 mmHg 90%
    05:00 +16°C° 0 mm 2 m/s 752 mmHg 90%
    06:00 +16°C° 0 mm 2 m/s 753 mmHg 91%
    07:00 +18°C° 0 mm 2 m/s 753 mmHg 84%
    08:00 +20°C° 0 mm 2 m/s 753 mmHg 77%
    09:00 +23°C° 0 mm 2 m/s 753 mmHg 70%
    10:00 +24°C° 0 mm 2 m/s 753 mmHg 66%
    11:00 +26°C° 0 mm 2 m/s 753 mmHg 62%
    12:00 +27°C° 0 mm 2 m/s 753 mmHg 58%
    13:00 +28°C° 0 mm 2 m/s 753 mmHg 58%
    14:00 +28°C° 0 mm 2 m/s 752 mmHg 58%
    15:00 +28°C° 0 mm 2 m/s 752 mmHg 58%
    16:00 +28°C° 0 mm 2 m/s 751 mmHg 63%
    17:00 +27°C° 0 mm 2 m/s 751 mmHg 69%
    18:00 +26°C° 0 mm 1 m/s 751 mmHg 74%
    19:00 +25°C° 0 mm 2 m/s 751 mmHg 77%
    20:00 +23°C° 0 mm 2 m/s 751 mmHg 80%
    21:00 +20°C° 0 mm 2 m/s 752 mmHg 82%
    22:00 +21°C° 0 mm 1 m/s 752 mmHg 85%
    23:00 +20°C° 0 mm 1 m/s 752 mmHg 88%

    1 Juin, Lundi

    Heure Température Précipitation Vent Pression Humidité
    00:00 +19°C° 0 mm 1 m/s 752 mmHg 91%
    01:00 +19°C° 0 mm 1 m/s 752 mmHg 92%
    02:00 +18°C° 0 mm 1 m/s 752 mmHg 94%
    03:00 +18°C° 0 mm 1 m/s 752 mmHg 95%
    04:00 +18°C° 0 mm 1 m/s 752 mmHg 95%
    05:00 +18°C° 0 mm 1 m/s 753 mmHg 94%
    06:00 +18°C° 0 mm 1 m/s 753 mmHg 94%
    07:00 +19°C° 0 mm 2 m/s 753 mmHg 87%
    08:00 +21°C° 0 mm 2 m/s 753 mmHg 80%
    09:00 +24°C° 0 mm 3 m/s 754 mmHg 73%
    10:00 +26°C° 0 mm 2 m/s 753 mmHg 68%
    11:00 +27°C° 0 mm 2 m/s 753 mmHg 64%
    12:00 +29°C° 0 mm 2 m/s 753 mmHg 59%
    13:00 +29°C° 0 mm 2 m/s 752 mmHg 58%
    14:00 +30°C° 0 mm 2 m/s 752 mmHg 57%
    15:00 +30°C° 0 mm 2 m/s 752 mmHg 56%
    16:00 +30°C° 0 mm 2 m/s 751 mmHg 62%
    17:00 +29°C° 0 mm 2 m/s 751 mmHg 68%
    18:00 +28°C° 0 mm 2 m/s 751 mmHg 74%
    19:00 +26°C° 0 mm 2 m/s 751 mmHg 77%
    20:00 +25°C° 0 mm 2 m/s 751 mmHg 80%
    21:00 +23°C° 0 mm 2 m/s 752 mmHg 83%
    22:00 +22°C° 0 mm 1 m/s 752 mmHg 85%
    23:00 +21°C° 0 mm 1 m/s 752 mmHg 88%

    2 Juin, Mardi

    Heure Température Précipitation Vent Pression Humidité
    00:00 +21°C° 0 mm 1 m/s 752 mmHg 90%
    01:00 +20°C° 0 mm 1 m/s 752 mmHg 90%
    02:00 +20°C° 0 mm 1 m/s 752 mmHg 91%
    03:00 +19°C° 0 mm 1 m/s 751 mmHg 92%
    04:00 +19°C° 0 mm 1 m/s 752 mmHg 92%
    05:00 +19°C° 0 mm 1 m/s 752 mmHg 91%
    06:00 +19°C° 0 mm 1 m/s 752 mmHg 91%
    07:00 +21°C° 0 mm 1 m/s 752 mmHg 84%
    08:00 +24°C° 0 mm 1 m/s 753 mmHg 78%
    09:00 +26°C° 0 mm 1 m/s 753 mmHg 71%
    10:00 +27°C° 0 mm 1 m/s 753 mmHg 67%
    11:00 +29°C° 0 mm 1 m/s 752 mmHg 63%
    12:00 +31°C° 0 mm 1 m/s 752 mmHg 59%
    13:00 +31°C° 0 mm 1 m/s 752 mmHg 58%
    14:00 +32°C° 0 mm 1 m/s 751 mmHg 57%
    15:00 +32°C° 0 mm 1 m/s 751 mmHg 55%
    16:00 +31°C° 0 mm 1 m/s 750 mmHg 61%
    17:00 +30°C° 0 mm 1 m/s 750 mmHg 67%
    18:00 +29°C° 0 mm 1 m/s 750 mmHg 73%
    19:00 +28°C° 0 mm 1 m/s 750 mmHg 77%
    20:00 +26°C° 0 mm 1 m/s 750 mmHg 80%
    21:00 +24°C° 0 mm 1 m/s 751 mmHg 83%
    22:00 +23°C° 0 mm 1 m/s 751 mmHg 85%
    23:00 +21°C° 0 mm 0 m/s 750 mmHg 87%

    3 Juin, Mercredi

    Heure Température Précipitation Vent Pression Humidité
    00:00 +20°C° 0 mm 0 m/s 750 mmHg 88%
    01:00 +20°C° 0 mm 0 m/s 750 mmHg 89%
    02:00 +19°C° 0 mm 0 m/s 750 mmHg 89%
    03:00 +19°C° 0 mm 0 m/s 750 mmHg 90%
    04:00 +19°C° 0 mm 0 m/s 750 mmHg 90%
    05:00 +19°C° 0 mm 0 m/s 750 mmHg 90%
    06:00 +19°C° 0 mm 0 m/s 750 mmHg 90%
    07:00 +24°C° 0 mm 1 m/s 750 mmHg 83%
    08:00 +26°C° 0 mm 1 m/s 750 mmHg 76%
    09:00 +28°C° 0 mm 1 m/s 750 mmHg 69%
    10:00 +29°C° 0 mm 1 m/s 750 mmHg 64%
    11:00 +31°C° 0 mm 1 m/s 749 mmHg 60%
    12:00 +32°C° 0 mm 2 m/s 749 mmHg 55%
    13:00 +32°C° 0 mm 2 m/s 749 mmHg 54%
    14:00 +34°C° 0 mm 2 m/s 748 mmHg 53%
    15:00 +33°C° 0 mm 1 m/s 748 mmHg 52%
    16:00 +32°C° 0 mm 1 m/s 747 mmHg 59%
    17:00 +31°C° 0 mm 1 m/s 747 mmHg 65%
    18:00 +31°C° 0 mm 1 m/s 747 mmHg 72%
    19:00 +29°C° 0 mm 1 m/s 747 mmHg 76%
    20:00 +27°C° 0 mm 1 m/s 747 mmHg 79%
    21:00 +25°C° 0 mm 1 m/s 747 mmHg 83%
    22:00 +24°C° 0 mm 1 m/s 747 mmHg 86%
    23:00 +24°C° 0 mm 1 m/s 747 mmHg 88%
    Voir plus